Tracking 29892 objects as of 21-Nov-2024
HD Live streaming from Space Station
objects crossing your sky now

ATLAS 41E DEB

Track ATLAS 41E DEB now!
10-day predictions


NORAD ID: 15614
Int'l Code: 1985-021D
Perigee: 642.1 km
Apogee: 662.3 km
Inclination: 108.2 °
Period: 97.6 minutes
Semi major axis: 7023 km
RCS: 0.0539 m2 (small)
Launch date: March 13, 1985
Source: United States (US)
Launch site: AIR FORCE WESTERN TEST RANGE (AFWTR)

Note: This is SATELLITE DEBRIS
Your satellite tracking list
Your tracking list is empty




NASA's NSSDC Master Catalog

Two Line Element Set (TLE):
1 15614U 85021D   24325.86172391  .00004383  00000-0  67400-3 0  9994
2 15614 108.2358 300.5897 0014391 253.9637 105.9937 14.75036673112023
Source of the keplerian elements: AFSPC